| time (UTC) | temp F | wind direction | speed knots | gust knots | rain 1hr in | rain 24hr in | rain mn in | humidity % | barometer mb |
| 20260506045023 | 76 | 118 | 1.7 | 2.6 | 0.00 | 0.00 | 0.00 | 94 | |
| 20260506044523 | 76 | 141 | 1.7 | 2.6 | 0.00 | 0.00 | 0.00 | 94 | |
| 20260506044023 | 76 | 165 | 2.6 | 3.5 | 0.00 | 0.00 | 0.00 | 93 | |
| 20260506043523 | 76 | 180 | 1.7 | 3.5 | 0.00 | 0.00 | 0.00 | 93 | |
| 20260506043043 | 76 | 148 | 1.7 | 1.7 | 0.00 | 0.00 | 0.00 | 93 | |
| 20260506042543 | 76 | 154 | 1.7 | 2.6 | 0.00 | 0.00 | 0.00 | 93 | |
| 20260506042023 | 77 | 173 | 1.7 | 2.6 | 0.00 | 0.00 | 0.00 | 92 | |
| 20260506041524 | 77 | 176 | 2.6 | 4.3 | 0.00 | 0.00 | 0.00 | 92 | |
| 20260506041023 | 77 | 135 | 2.6 | 4.3 | 0.00 | 0.00 | 0.00 | 91 | |
| 20260506040523 | 77 | 125 | 1.7 | 1.7 | 0.00 | 0.00 | 0.00 | 91 | |
| 20260506040024 | 77 | 133 | 2.6 | 2.6 | 0.00 | 0.00 | 0.00 | 91 | |
| 20260506035624 | 77 | 134 | 1.7 | 2.6 | 0.00 | 0.00 | 0.00 | 90 | |
| 20260506035024 | 77 | 133 | 2.6 | 2.6 | 0.00 | 0.00 | 0.00 | 90 | |
| 20260506034524 | 77 | 119 | 1.7 | 2.6 | 0.00 | 0.00 | 0.00 | 89 | |
| 20260506034044 | 77 | 147 | 2.6 | 2.6 | 0.00 | 0.00 | 0.00 | 89 | |
| 20260506033524 | 77 | 146 | 3.5 | 3.5 | 0.00 | 0.00 | 0.00 | 89 | |
| 20260506033024 | 77 | 148 | 2.6 | 3.5 | 0.00 | 0.00 | 0.00 | 89 | |
| 20260506032544 | 77 | 146 | 2.6 | 3.5 | 0.00 | 0.00 | 0.00 | 89 | |
| 20260506032024 | 77 | 149 | 2.6 | 3.5 | 0.00 | 0.00 | 0.00 | 89 | |
| 20260506031544 | 77 | 148 | 2.6 | 3.5 | 0.00 | 0.00 | 0.00 | 89 | |
| 20260506031025 | 77 | 148 | 2.6 | 3.5 | 0.00 | 0.00 | 0.00 | 89 | |
| 20260506030525 | 77 | 158 | 5.2 | 5.2 | 0.00 | 0.00 | 0.00 | 89 | |
| 20260506030025 | 78 | 167 | 4.3 | 5.2 | 0.00 | 0.00 | 0.00 | 89 | |
| 20260506025525 | 78 | 173 | 3.5 | 5.2 | 0.00 | 0.00 | 0.00 | 89 | |
| 20260506025025 | 78 | 182 | 4.3 | 5.2 | 0.00 | 0.00 | 0.00 | 89 | |
| 20260506024525 | 78 | 177 | 3.5 | 3.5 | 0.00 | 0.00 | 0.00 | 88 | |
| 20260506024025 | 78 | 183 | 3.5 | 4.3 | 0.00 | 0.00 | 0.00 | 88 | |
| 20260506023545 | 78 | 166 | 4.3 | 6.1 | 0.00 | 0.00 | 0.00 | 87 | |
| 20260506023046 | 78 | 170 | 3.5 | 4.3 | 0.00 | 0.00 | 0.00 | 87 | |
| 20260506022525 | 78 | 190 | 3.5 | 4.3 | 0.00 | 0.00 | 0.00 | 87 | |
| 20260506022025 | 78 | 183 | 3.5 | 4.3 | 0.00 | 0.00 | 0.00 | 87 | |
| 20260506021525 | 78 | 187 | 4.3 | 5.2 | 0.00 | 0.00 | 0.00 | 87 | |
| 20260506021045 | 78 | 154 | 4.3 | 5.2 | 0.00 | 0.00 | 0.00 | 86 | |
| 20260506020525 | 78 | 176 | 3.5 | 4.3 | 0.00 | 0.00 | 0.00 | 86 | |
| 20260506020025 | 78 | 191 | 3.5 | 4.3 | 0.00 | 0.00 | 0.00 | 86 | |
| 20260506015526 | 78 | 189 | 4.3 | 5.2 | 0.00 | 0.00 | 0.00 | 86 | |
| 20260506015045 | 79 | 183 | 3.5 | 6.1 | 0.00 | 0.00 | 0.00 | 86 | |
| 20260506014526 | 79 | 214 | 3.5 | 4.3 | 0.00 | 0.00 | 0.00 | 85 | |
| 20260506014025 | 79 | 176 | 3.5 | 5.2 | 0.00 | 0.00 | 0.00 | 85 | |
| 20260506013525 | 79 | 188 | 3.5 | 4.3 | 0.00 | 0.00 | 0.00 | 85 | |
| 20260506013046 | 79 | 199 | 4.3 | 4.3 | 0.00 | 0.00 | 0.00 | 85 | |
| 20260506012546 | 79 | 187 | 3.5 | 4.3 | 0.00 | 0.00 | 0.00 | 84 | |
| 20260506012026 | 79 | 157 | 5.2 | 6.1 | 0.00 | 0.00 | 0.00 | 84 | |
| 20260506011526 | 79 | 156 | 4.3 | 5.2 | 0.00 | 0.00 | 0.00 | 84 | |
| 20260506011106 | 79 | 194 | 4.3 | 4.3 | 0.00 | 0.00 | 0.00 | 84 | |
| 20260506010546 | 79 | 236 | 4.3 | 5.2 | 0.00 | 0.00 | 0.00 | 83 | |
| 20260506010026 | 79 | 243 | 5.2 | 6.1 | 0.00 | 0.00 | 0.00 | 83 | |
| 20260506005526 | 79 | 243 | 5.2 | 6.1 | 0.00 | 0.00 | 0.00 | 83 | |
| 20260506005026 | 79 | 238 | 5.2 | 6.1 | 0.00 | 0.00 | 0.00 | 82 | |
| 20260506004527 | 80 | 238 | 4.3 | 5.2 | 0.00 | 0.00 | 0.00 | 82 | |
| 20260506004026 | 80 | 237 | 4.3 | 5.2 | 0.00 | 0.00 | 0.00 | 82 | |
| 20260506003527 | 80 | 240 | 5.2 | 5.2 | 0.00 | 0.00 | 0.00 | 82 | |
| 20260506003027 | 80 | 245 | 5.2 | 6.1 | 0.00 | 0.00 | 0.00 | 81 | |
| 20260506002607 | 80 | 240 | 5.2 | 6.1 | 0.00 | 0.00 | 0.00 | 81 | |
| 20260506002048 | 80 | 228 | 5.2 | 5.2 | 0.00 | 0.00 | 0.00 | 81 | |
| 20260506001527 | 80 | 180 | 4.3 | 5.2 | 0.00 | 0.00 | 0.00 | 81 | |
| 20260506001027 | 80 | 143 | 7.8 | 9.6 | 0.00 | 0.00 | 0.00 | 81 | |
| 20260506000527 | 80 | 130 | 8.7 | 9.6 | 0.00 | 0.00 | 0.00 | 81 | |
| 20260506000027 | 80 | 131 | 5.2 | 7.8 | 0.00 | 0.00 | 0.00 | 81 | |
| 20260505235527 | 80 | 129 | 4.3 | 5.2 | 0.00 | 0.00 | 0.00 | 81 | |
| 20260505235028 | 80 | 131 | 5.2 | 7.8 | 0.00 | 0.00 | 0.00 | 81 | |
| 20260505234527 | 80 | 136 | 9.6 | 11.3 | 0.00 | 0.00 | 0.00 | 81 | |
| 20260505234028 | 80 | 134 | 10.4 | 12.2 | 0.00 | 0.00 | 0.00 | 81 | |
| 20260505233608 | 81 | 49 | 4.3 | 6.1 | 0.00 | 0.00 | 0.00 | 81 | |
| 20260505233028 | 81 | 324 | 3.5 | 3.5 | 0.00 | 0.00 | 0.00 | 80 | |
| 20260505232528 | 81 | 292 | 3.5 | 4.3 | 0.00 | 0.00 | 0.00 | 80 | |
| 20260505232028 | 81 | 286 | 3.5 | 3.5 | 0.00 | 0.00 | 0.00 | 80 | |
| 20260505231528 | 81 | 292 | 3.5 | 3.5 | 0.00 | 0.00 | 0.00 | 80 | |
| 20260505231048 | 81 | 290 | 3.5 | 3.5 | 0.00 | 0.00 | 0.00 | 80 | |
| 20260505230528 | 81 | 289 | 3.5 | 3.5 | 0.00 | 0.00 | 0.00 | 80 | |
| 20260505230028 | 81 | 272 | 3.5 | 3.5 | 0.00 | 0.00 | 0.00 | 80 | |
| 20260505225528 | 81 | 238 | 3.5 | 4.3 | 0.00 | 0.00 | 0.00 | 80 | |
| 20260505225028 | 82 | 202 | 4.3 | 5.2 | 0.00 | 0.00 | 0.00 | 79 | |
| 20260505224529 | 82 | 197 | 5.2 | 6.1 | 0.00 | 0.00 | 0.00 | 77 | |
| 20260505224028 | 82 | 198 | 5.2 | 6.1 | 0.00 | 0.00 | 0.00 | 77 | |
| 20260505223529 | 82 | 170 | 3.5 | 4.3 | 0.00 | 0.00 | 0.00 | 77 | |
| 20260505223029 | 82 | 191 | 3.5 | 6.1 | 0.00 | 0.00 | 0.00 | 77 | |
| 20260505222549 | 82 | 209 | 6.1 | 7.0 | 0.00 | 0.00 | 0.00 | 77 | |
| 20260505222029 | 82 | 209 | 6.1 | 7.0 | 0.00 | 0.00 | 0.00 | 77 | |
| 20260505221529 | 82 | 203 | 5.2 | 6.1 | 0.00 | 0.00 | 0.00 | 76 | |
| 20260505221049 | 82 | 213 | 6.1 | 6.1 | 0.00 | 0.00 | 0.00 | 77 | |
| 20260505220529 | 82 | 213 | 5.2 | 6.1 | 0.00 | 0.00 | 0.00 | 77 | |
| 20260505220029 | 82 | 204 | 4.3 | 5.2 | 0.00 | 0.00 | 0.00 | 78 | |
| 20260505215549 | 82 | 179 | 5.2 | 6.1 | 0.00 | 0.00 | 0.00 | 78 | |
| 20260505215030 | 82 | 214 | 6.1 | 7.8 | 0.00 | 0.00 | 0.00 | 77 | |
| 20260505214530 | 82 | 204 | 3.5 | 4.3 | 0.00 | 0.00 | 0.00 | 77 | |
| 20260505214029 | 82 | 188 | 6.1 | 7.0 | 0.00 | 0.00 | 0.00 | 77 | |
| 20260505213530 | 82 | 188 | 6.1 | 6.1 | 0.00 | 0.00 | 0.00 | 77 | |
| 20260505213030 | 82 | 188 | 5.2 | 7.0 | 0.00 | 0.00 | 0.00 | 77 | |
| 20260505212530 | 82 | 189 | 7.0 | 7.0 | 0.00 | 0.00 | 0.00 | 77 | |
| 20260505212030 | 82 | 189 | 7.0 | 7.0 | 0.00 | 0.00 | 0.00 | 78 | |
| 20260505211530 | 82 | 191 | 6.1 | 7.0 | 0.00 | 0.00 | 0.00 | 78 | |
| 20260505211030 | 82 | 191 | 6.1 | 6.1 | 0.00 | 0.00 | 0.00 | 78 | |
| 20260505210531 | 82 | 190 | 6.1 | 7.0 | 0.00 | 0.00 | 0.00 | 77 | |
| 20260505210030 | 82 | 195 | 6.1 | 7.8 | 0.00 | 0.00 | 0.00 | 77 | |
| 20260505205531 | 82 | 197 | 7.0 | 7.8 | 0.00 | 0.00 | 0.00 | 78 | |
| 20260505205030 | 82 | 197 | 7.0 | 7.0 | 0.00 | 0.00 | 0.00 | 78 | |
| 20260505204531 | 82 | 198 | 6.1 | 7.0 | 0.00 | 0.00 | 0.00 | 78 | |
| 20260505204030 | 82 | 198 | 6.1 | 7.8 | 0.00 | 0.00 | 0.00 | 78 | |
| 20260505203531 | 82 | 201 | 7.0 | 7.0 | 0.00 | 0.00 | 0.00 | 78 | |
| 20260505203031 | 82 | 199 | 7.0 | 7.8 | 0.00 | 0.00 | 0.00 | 77 | |
| 20260505202551 | 82 | 201 | 7.0 | 7.8 | 0.00 | 0.00 | 0.00 | 77 | |
| 20260505202031 | 82 | 200 | 6.1 | 7.0 | 0.00 | 0.00 | 0.00 | 77 | |
| 20260505201531 | 82 | 207 | 4.3 | 5.2 | 0.00 | 0.00 | 0.00 | 78 | |
| 20260505201031 | 82 | 205 | 5.2 | 6.1 | 0.00 | 0.00 | 0.00 | 78 | |
| 20260505200531 | 82 | 214 | 6.1 | 7.8 | 0.00 | 0.00 | 0.00 | 78 | |
| 20260505200031 | 81 | 200 | 5.2 | 7.0 | 0.00 | 0.00 | 0.00 | 79 | |
| 20260505195531 | 81 | 204 | 7.0 | 7.0 | 0.00 | 0.00 | 0.00 | 79 | |
| 20260505195031 | 81 | 207 | 5.2 | 7.0 | 0.00 | 0.00 | 0.00 | 79 | |
| 20260505194532 | 81 | 211 | 3.5 | 4.3 | 0.00 | 0.00 | 0.00 | 79 | |
| 20260505194032 | 81 | 199 | 5.2 | 6.1 | 0.00 | 0.00 | 0.00 | 80 | |
| 20260505193552 | 81 | 209 | 4.3 | 5.2 | 0.00 | 0.00 | 0.00 | 80 | |
| 20260505193032 | 81 | 218 | 3.5 | 4.3 | 0.00 | 0.00 | 0.00 | 81 | |
| 20260505192552 | 80 | 217 | 5.2 | 7.0 | 0.00 | 0.00 | 0.00 | 81 | |
| 20260505192032 | 80 | 225 | 6.1 | 7.8 | 0.00 | 0.00 | 0.00 | 82 | |
| 20260505191532 | 80 | 206 | 5.2 | 6.1 | 0.00 | 0.00 | 0.00 | 81 | |
| 20260505191032 | 80 | 223 | 4.3 | 4.3 | 0.00 | 0.00 | 0.00 | 80 | |
| 20260505190532 | 81 | 218 | 3.5 | 4.3 | 0.00 | 0.00 | 0.00 | 80 | |
| 20260505190032 | 81 | 209 | 4.3 | 5.2 | 0.00 | 0.00 | 0.00 | 80 | |
| 20260505185533 | 81 | 184 | 5.2 | 6.1 | 0.00 | 0.00 | 0.00 | 80 | |
| 20260505185033 | 81 | 186 | 5.2 | 6.1 | 0.00 | 0.00 | 0.00 | 80 | |
| 20260505184533 | 80 | 204 | 4.3 | 5.2 | 0.00 | 0.00 | 0.00 | 80 | |
| 20260505184033 | 80 | 202 | 6.1 | 7.0 | 0.00 | 0.00 | 0.00 | 80 | |
| 20260505183533 | 80 | 209 | 4.3 | 5.2 | 0.00 | 0.00 | 0.00 | 81 | |
| 20260505183033 | 80 | 217 | 4.3 | 7.0 | 0.00 | 0.00 | 0.00 | 82 | |
| 20260505182533 | 80 | 212 | 4.3 | 7.0 | 0.00 | 0.00 | 0.00 | 81 | |
| 20260505182033 | 80 | 242 | 6.1 | 8.7 | 0.00 | 0.00 | 0.00 | 82 | |
| 20260505181533 | 80 | 257 | 7.0 | 7.8 | 0.00 | 0.00 | 0.00 | 82 | |
| 20260505181033 | 80 | 245 | 7.0 | 8.7 | 0.00 | 0.00 | 0.00 | 82 | |
| 20260505180534 | 80 | 196 | 8.7 | 9.6 | 0.00 | 0.00 | 0.00 | 82 | |
| 20260505180033 | 79 | 191 | 8.7 | 9.6 | 0.00 | 0.00 | 0.00 | 82 | |
| 20260505175534 | 80 | 199 | 7.0 | 7.8 | 0.00 | 0.00 | 0.00 | 82 | |
| 20260505175034 | 80 | 193 | 7.0 | 7.8 | 0.00 | 0.00 | 0.00 | 82 | |
| 20260505174534 | 79 | 192 | 7.0 | 7.8 | 0.00 | 0.00 | 0.00 | 83 | |
| 20260505174054 | 79 | 193 | 7.8 | 7.8 | 0.00 | 0.00 | 0.00 | 83 | |
| 20260505173534 | 79 | 193 | 7.0 | 7.8 | 0.00 | 0.00 | 0.00 | 83 | |
| 20260505173115 | 79 | 193 | 7.0 | 7.0 | 0.00 | 0.00 | 0.00 | 84 | |
| 20260505172534 | 78 | 194 | 7.0 | 7.8 | 0.00 | 0.00 | 0.00 | 85 | |
| 20260505172034 | 78 | 195 | 7.0 | 7.0 | 0.00 | 0.00 | 0.00 | 85 | |
| 20260505171534 | 78 | 188 | 6.1 | 6.1 | 0.00 | 0.00 | 0.00 | 85 | |
| 20260505171034 | 78 | 198 | 4.3 | 6.1 | 0.00 | 0.00 | 0.00 | 85 | |
| 20260505170535 | 78 | 185 | 3.5 | 4.3 | 0.00 | 0.00 | 0.00 | 85 | |
| 20260505170034 | 78 | 187 | 4.3 | 5.2 | 0.00 | 0.00 | 0.00 | 85 | |
| 20260505165535 | 78 | 195 | 5.2 | 5.2 | 0.00 | 0.00 | 0.00 | 85 | |
| 20260505165115 | 78 | 190 | 4.3 | 5.2 | 0.00 | 0.00 | 0.00 | 85 | |
| 20260505164535 | 78 | 206 | 4.3 | 5.2 | 0.00 | 0.00 | 0.00 | 86 | |
| 20260505164036 | 78 | 213 | 5.2 | 6.1 | 0.00 | 0.00 | 0.00 | 86 | |
| 20260505163536 | 78 | 214 | 4.3 | 5.2 | 0.00 | 0.00 | 0.00 | 87 | |
| 20260505163035 | 78 | 204 | 4.3 | 6.1 | 0.00 | 0.00 | 0.00 | 86 | |
| 20260505162535 | 78 | 199 | 5.2 | 5.2 | 0.00 | 0.00 | 0.00 | 86 | |
| 20260505162035 | 78 | 204 | 5.2 | 6.1 | 0.00 | 0.00 | 0.00 | 86 | |
| 20260505161535 | 78 | 250 | 5.2 | 6.1 | 0.00 | 0.00 | 0.00 | 87 | |
| 20260505161035 | 78 | 224 | 5.2 | 6.1 | 0.00 | 0.00 | 0.00 | 87 | |
| 20260505160535 | 77 | 228 | 5.2 | 6.1 | 0.00 | 0.00 | 0.00 | 87 | |
| 20260505153036 | 76 | 192 | 4.3 | 5.2 | 0.00 | 0.00 | 0.00 | 90 | |
| 20260505152536 | 76 | 194 | 3.5 | 4.3 | 0.00 | 0.00 | 0.00 | 90 | |
| 20260505152036 | 76 | 214 | 2.6 | 3.5 | 0.00 | 0.00 | 0.00 | 92 | |
| 20260505151536 | 75 | 213 | 2.6 | 3.5 | 0.00 | 0.00 | 0.00 | 92 | |
| 20260505151036 | 75 | 197 | 3.5 | 4.3 | 0.00 | 0.00 | 0.00 | 92 | |
| 20260505150536 | 75 | 195 | 3.5 | 4.3 | 0.00 | 0.00 | 0.00 | 93 | |
| 20260505140537 | 74 | 191 | 4.3 | 6.1 | 0.00 | 0.00 | 0.00 | 93 | |
| 20260505125038 | 71 | 192 | 3.5 | 4.3 | 0.00 | 0.00 | 0.00 | 97 | |
| 20260505124558 | 71 | 190 | 3.5 | 4.3 | 0.00 | 0.00 | 0.00 | 97 | |
| 20260505124038 | 71 | 181 | 2.6 | 3.5 | 0.00 | 0.00 | 0.00 | 97 | |
| 20260505123538 | 71 | 187 | 2.6 | 3.5 | 0.00 | 0.00 | 0.00 | 97 | |
| 20260505123038 | 71 | 199 | 2.6 | 3.5 | 0.00 | 0.00 | 0.00 | 97 | |
| 20260505122538 | 70 | 187 | 2.6 | 3.5 | 0.00 | 0.00 | 0.00 | 97 | |
| 20260505122038 | 70 | 188 | 2.6 | 3.5 | 0.00 | 0.00 | 0.00 | 97 | |
| 20260505121539 | 70 | 178 | 2.6 | 3.5 | 0.00 | 0.00 | 0.00 | 97 | |
| 20260505121039 | 70 | 176 | 2.6 | 3.5 | 0.00 | 0.00 | 0.00 | 97 | |
| 20260505120539 | 70 | 173 | 2.6 | 3.5 | 0.00 | 0.00 | 0.00 | 97 | |
| 20260505120039 | 70 | 169 | 1.7 | 2.6 | 0.00 | 0.00 | 0.00 | 97 | |
| 20260505115539 | 70 | 176 | 2.6 | 2.6 | 0.00 | 0.00 | 0.00 | 97 | |
| 20260505115059 | 70 | 155 | 2.6 | 3.5 | 0.00 | 0.00 | 0.00 | 97 | |
| 20260505114540 | 70 | 170 | 2.6 | 3.5 | 0.00 | 0.00 | 0.00 | 97 | |
| 20260505114059 | 69 | 180 | 2.6 | 2.6 | 0.00 | 0.00 | 0.00 | 97 | |
| 20260505113559 | 69 | 162 | 1.7 | 2.6 | 0.00 | 0.00 | 0.00 | 97 | |
| 20260505113039 | 69 | 173 | 1.7 | 2.6 | 0.00 | 0.00 | 0.00 | 97 | |
| 20260505112539 | 69 | 161 | 1.7 | 1.7 | 0.00 | 0.00 | 0.00 | 97 | |
| 20260505112039 | 69 | 179 | 1.7 | 2.6 | 0.00 | 0.00 | 0.00 | 97 | |
| 20260505111539 | 69 | 188 | 1.7 | 2.6 | 0.00 | 0.00 | 0.00 | 97 | |
| 20260505111040 | 69 | 157 | 0.9 | 2.6 | 0.00 | 0.00 | 0.00 | 97 | |
| 20260505110540 | 69 | 157 | 1.7 | 2.6 | 0.00 | 0.00 | 0.00 | 97 | |
| 20260505102040 | 69 | 122 | 0.9 | 1.7 | 0.00 | 0.00 | 0.00 | 97 | |
| 20260505101540 | 69 | 155 | 0.9 | 2.6 | 0.00 | 0.00 | 0.00 | 96 | |
| 20260505101041 | 69 | 171 | 2.6 | 3.5 | 0.00 | 0.00 | 0.00 | 96 | |
| 20260505100541 | 69 | 164 | 1.7 | 2.6 | 0.00 | 0.00 | 0.00 | 96 | |
| 20260505100041 | 68 | 163 | 2.6 | 3.5 | 0.00 | 0.00 | 0.00 | 96 | |
| 20260505095541 | 68 | 193 | 1.7 | 2.6 | 0.00 | 0.00 | 0.00 | 96 | |
| 20260505095041 | 69 | 174 | 1.7 | 2.6 | 0.00 | 0.00 | 0.00 | 96 | |
| 20260505094541 | 69 | 163 | 1.7 | 2.6 | 0.00 | 0.00 | 0.00 | 96 | |
| 20260505094101 | 69 | 163 | 1.7 | 1.7 | 0.00 | 0.00 | 0.00 | 96 | |
| 20260505093541 | 69 | 137 | 1.7 | 2.6 | 0.00 | 0.00 | 0.00 | 95 | |
| 20260505093041 | 69 | 140 | 1.7 | 2.6 | 0.00 | 0.00 | 0.00 | 95 | |
| 20260505092541 | 69 | 170 | 1.7 | 1.7 | 0.00 | 0.00 | 0.00 | 95 | |
| 20260505092041 | 69 | 177 | 1.7 | 3.5 | 0.00 | 0.00 | 0.00 | 95 | |
| 20260505091542 | 69 | 171 | 1.7 | 2.6 | 0.00 | 0.00 | 0.00 | 95 | |
| 20260505091041 | 69 | 170 | 2.6 | 2.6 | 0.00 | 0.00 | 0.00 | 95 | |
| 20260505090541 | 69 | 185 | 1.7 | 3.5 | 0.00 | 0.00 | 0.00 | 95 | |
| 20260505085541 | 69 | 201 | 1.7 | 2.6 | 0.00 | 0.00 | 0.00 | 95 | |
| 20260505085102 | 69 | 168 | 2.6 | 3.5 | 0.00 | 0.00 | 0.00 | 95 | |
| 20260505084542 | 69 | 184 | 1.7 | 2.6 | 0.00 | 0.00 | 0.00 | 95 | |
| 20260505084042 | 69 | 177 | 1.7 | 3.5 | 0.00 | 0.00 | 0.00 | 94 | |
| 20260505083542 | 69 | 177 | 2.6 | 4.3 | 0.00 | 0.00 | 0.00 | 94 | |
| 20260505083042 | 69 | 188 | 1.7 | 2.6 | 0.00 | 0.00 | 0.00 | 94 | |
| 20260505082542 | 69 | 193 | 1.7 | 2.6 | 0.00 | 0.00 | 0.00 | 94 | |
| 20260505082042 | 69 | 193 | 1.7 | 2.6 | 0.00 | 0.00 | 0.00 | 94 | |
| 20260505081602 | 69 | 159 | 1.7 | 2.6 | 0.00 | 0.00 | 0.00 | 94 | |
| 20260505081042 | 69 | 153 | 1.7 | 2.6 | 0.00 | 0.00 | 0.00 | 94 | |
| 20260505080542 | 69 | 181 | 1.7 | 2.6 | 0.00 | 0.00 | 0.00 | 94 | |
| 20260505080042 | 69 | 170 | 2.6 | 4.3 | 0.00 | 0.00 | 0.00 | 93 | |
| 20260505075542 | 69 | 178 | 1.7 | 2.6 | 0.00 | 0.00 | 0.00 | 93 | |
| 20260505075043 | 69 | 190 | 2.6 | 3.5 | 0.00 | 0.00 | 0.00 | 93 | |
| 20260505074542 | 69 | 185 | 2.6 | 3.5 | 0.00 | 0.00 | 0.00 | 93 | |
| 20260505074042 | 69 | 183 | 2.6 | 3.5 | 0.00 | 0.00 | 0.00 | 93 | |
| 20260505073543 | 69 | 197 | 2.6 | 2.6 | 0.00 | 0.00 | 0.00 | 93 | |
| 20260505073043 | 69 | 204 | 2.6 | 3.5 | 0.00 | 0.00 | 0.00 | 93 | |
| 20260505072543 | 69 | 172 | 2.6 | 3.5 | 0.00 | 0.00 | 0.00 | 93 | |
| 20260505072044 | 69 | 176 | 2.6 | 3.5 | 0.00 | 0.00 | 0.00 | 92 | |
| 20260505071603 | 69 | 209 | 1.7 | 2.6 | 0.00 | 0.00 | 0.00 | 92 | |
| 20260505071043 | 69 | 192 | 1.7 | 2.6 | 0.00 | 0.00 | 0.00 | 92 | |
| 20260505070603 | 69 | 184 | 2.6 | 4.3 | 0.00 | 0.00 | 0.00 | 92 | |
| 20260505070044 | 69 | 178 | 1.7 | 2.6 | 0.00 | 0.00 | 0.00 | 91 | |
| 20260505065603 | 69 | 179 | 2.6 | 2.6 | 0.00 | 0.00 | 0.00 | 91 | |
| 20260505065103 | 69 | 188 | 1.7 | 2.6 | 0.00 | 0.00 | 0.00 | 91 | |
| 20260505064543 | 70 | 180 | 2.6 | 4.3 | 0.00 | 0.00 | 0.00 | 91 | |
| 20260505064045 | 70 | 168 | 3.5 | 4.3 | 0.00 | 0.00 | 0.00 | 90 | |
| 20260505063543 | 70 | 177 | 2.6 | 2.6 | 0.00 | 0.00 | 0.00 | 90 | |
| 20260505063104 | 70 | 179 | 2.6 | 3.5 | 0.00 | 0.00 | 0.00 | 90 | |
| 20260505062544 | 70 | 167 | 3.5 | 3.5 | 0.00 | 0.00 | 0.00 | 90 | |
| 20260505062044 | 70 | 198 | 2.6 | 3.5 | 0.00 | 0.00 | 0.00 | 90 | |
| 20260505061624 | 70 | 180 | 2.6 | 3.5 | 0.00 | 0.00 | 0.00 | 90 | |
| 20260505061044 | 70 | 180 | 2.6 | 3.5 | 0.00 | 0.00 | 0.00 | 89 | |
| 20260505060545 | 70 | 198 | 2.6 | 2.6 | 0.00 | 0.00 | 0.00 | 89 | |
| 20260505060044 | 70 | 178 | 2.6 | 3.5 | 0.00 | 0.00 | 0.00 | 89 | |
| 20260505055544 | 70 | 171 | 3.5 | 4.3 | 0.00 | 0.00 | 0.00 | 89 | |
| 20260505055044 | 70 | 176 | 3.5 | 4.3 | 0.00 | 0.00 | 0.00 | 88 | |
| 20260505054604 | 70 | 181 | 3.5 | 3.5 | 0.00 | 0.00 | 0.00 | 88 | |
| 20260505054044 | 70 | 173 | 2.6 | 2.6 | 0.00 | 0.00 | 0.00 | 88 | |
| 20260505053545 | 70 | 174 | 2.6 | 3.5 | 0.00 | 0.00 | 0.00 | 88 | |
| 20260505053044 | 70 | 164 | 3.5 | 3.5 | 0.00 | 0.00 | 0.00 | 88 | |
| 20260505052605 | 70 | 171 | 2.6 | 3.5 | 0.00 | 0.00 | 0.00 | 88 | |
| 20260505052045 | 70 | 183 | 2.6 | 2.6 | 0.00 | 0.00 | 0.00 | 87 | |
| 20260505051545 | 70 | 184 | 2.6 | 3.5 | 0.00 | 0.00 | 0.00 | 87 | |
| 20260505051045 | 70 | 187 | 2.6 | 3.5 | 0.00 | 0.00 | 0.00 | 87 | |
| 20260505050545 | 70 | 174 | 2.6 | 3.5 | 0.00 | 0.00 | 0.00 | 87 |